{"data":{"norad_id":65150,"intl_designator":"2025-171U","name":"KUIPER-00112","alt_names":[],"object_type":"PAYLOAD","status":"ACTIVE","operator":null,"country":"US","launch_date":"2025-08-11","launch_site_code":"AFETR","launch_vehicle":null,"mission":null,"orbit_class":"UNKNOWN","rcs_meters":null,"size_class":null,"mass_kg":null,"dimensions":null,"purposes":[],"wikipedia_slug":null,"has_3d_model":false,"image_url":null,"decayed_at":null,"tle_current":{"epoch":"2026-09-21T13:12:34.762176Z","epoch_age_seconds":74628,"freshness":"FRESH","line1":"1 65150U 25171U   26264.55040234  .00002071  00000+0  30057-3 0  9993","line2":"2 65150  51.9033   9.5367 0000313 120.5967 239.5027 14.79936393 61927","mean_motion":14.79936393,"eccentricity":3.13e-5,"inclination_deg":51.9033,"raan_deg":9.5367,"arg_perigee_deg":120.5967,"mean_anomaly_deg":239.5027,"bstar":0.00030057,"rev_number":6192,"period_min":97.301479091338,"perigee_km":629.3055785172,"apogee_km":629.74425815329,"semimajor_km":7007.6619183352,"source":"CELESTRAK","updated_at":"2026-09-22T09:00:30.156760Z"}}}